COSMOS 2555 (52330 NORAD) Tracking and Keplerian Element Data

This shows tracking and keplerian element data for the satellite.

Feedback or suggestion? Click here.




ElementValue
Catalog52330
NameCOSMOS 2555
Epoch Orbit289
Epoch Day137.9288582
Epoch Year2022
RAAN227.9004
Inclination96.4215
Eccentricity0.0014098
Argument of Perigee228.6893
Mean Anonmoly132.3826
Mean Motion16.55086891
Decay Rate0.36184717
L11 52330U 22044A 22137.92885820 .36184717 20708-5 19147-3 0 9996
L22 52330 96.4215 227.9004 0014098 228.6893 132.3826 16.55086891 2899



Live tracking and technical data element details for COSMOS 2555 (NORAD 52330). COSMOS 2555 can be tracked NOW for your location showing map with azimuth and elevation plus other details from your city location.







IsCatalogInMostPopularTable: catalog: 52330, numindb: 28
Update: records affected: 1



GetName: 52330 COSMOS 2555

Hit Count: updated at: Sun, 28 May 2023 07:36:07 GMT